TimeEDT,TemperatureF,Dew PointF,Humidity,Sea Level PressureIn,VisibilityMPH,Wind Direction,Wind SpeedMPH,Gust SpeedMPH,PrecipitationIn,Events,Conditions,WindDirDegrees,DateUTC
12:53 AM,69.1,54.0,58,29.96,10.0,NW,9.2,-,N/A,,Clear,320,2013-05-06 04:53:00
1:53 AM,66.9,53.1,61,29.95,10.0,NW,10.4,-,N/A,,Clear,320,2013-05-06 05:53:00
2:53 AM,64.9,54.0,68,29.95,10.0,NNW,9.2,-,N/A,,Clear,330,2013-05-06 06:53:00
3:53 AM,64.0,55.0,73,29.95,10.0,NNW,5.8,-,N/A,,Clear,330,2013-05-06 07:53:00
4:53 AM,63.0,55.9,78,29.96,10.0,NNW,5.8,-,N/A,,Clear,340,2013-05-06 08:53:00
5:53 AM,63.0,55.0,75,29.98,10.0,NNW,3.5,-,N/A,,Clear,340,2013-05-06 09:53:00
6:53 AM,62.1,55.9,80,30.00,10.0,North,3.5,-,N/A,,Clear,350,2013-05-06 10:53:00
7:53 AM,66.0,57.9,75,30.03,10.0,North,3.5,-,N/A,,Clear,350,2013-05-06 11:53:00
8:53 AM,71.1,59.0,66,30.04,10.0,NNW,4.6,-,N/A,,Clear,340,2013-05-06 12:53:00
9:53 AM,75.0,57.9,55,30.03,10.0,NW,8.1,-,N/A,,Clear,320,2013-05-06 13:53:00
10:53 AM,77.0,57.9,52,30.04,10.0,NW,8.1,-,N/A,,Clear,320,2013-05-06 14:53:00
11:53 AM,80.1,55.0,42,30.02,10.0,NNW,6.9,-,N/A,,Clear,340,2013-05-06 15:53:00
12:53 PM,81.0,54.0,39,30.01,10.0,Calm,Calm,-,N/A,,Clear,0,2013-05-06 16:53:00
1:53 PM,82.9,55.9,39,30.00,10.0,Variable,4.6,-,N/A,,Clear,0,2013-05-06 17:53:00
2:53 PM,84.0,55.0,37,29.98,10.0,WNW,8.1,-,N/A,,Clear,290,2013-05-06 18:53:00
3:53 PM,84.0,55.0,37,29.96,10.0,NW,6.9,-,N/A,,Clear,310,2013-05-06 19:53:00
4:53 PM,82.9,57.0,41,29.95,10.0,Variable,4.6,-,N/A,,Partly Cloudy,0,2013-05-06 20:53:00
5:53 PM,81.0,57.0,44,29.94,10.0,South,15.0,-,N/A,,Scattered Clouds,170,2013-05-06 21:53:00
6:53 PM,80.1,57.0,45,29.95,10.0,South,12.7,-,N/A,,Scattered Clouds,180,2013-05-06 22:53:00
7:53 PM,78.1,60.1,54,29.96,10.0,West,15.0,-,N/A,,Scattered Clouds,260,2013-05-06 23:53:00
8:53 PM,75.9,63.0,64,29.98,10.0,WSW,15.0,20.7,N/A,,Partly Cloudy,250,2013-05-07 00:53:00
9:53 PM,75.0,64.0,69,30.00,10.0,West,11.5,-,N/A,,Scattered Clouds,260,2013-05-07 01:53:00
10:53 PM,73.0,64.0,73,30.01,10.0,West,8.1,-,N/A,,Mostly Cloudy,260,2013-05-07 02:53:00
11:53 PM,71.1,64.9,81,30.02,10.0,WSW,5.8,-,N/A,,Clear,250,2013-05-07 03:53:00